Flag for Kazakhstan Weather past 2 weeks in Shymkent, Kazakhstan

Now
93 °F

Passing clouds.


Feels Like: 89 °F
Forecast: 66 / 93 °F
Wind: 6 mph from Northwest

Location: Shymkent Airport

Current Time: Jul 22, 2014 at 5:47:29 PM

Latest Report: Jul 22, 2014 at 5:00 PM


Visibility: N/A

Pressure: 29.71 "Hg

Humidity: 10%

Dew point: 28 °F

Location of ShymkentLocation

Historic Weather in Shymkent — Graph

°F

Shymkent temperature yesterday

Maximum temperature yesterday: 95 °F (at 12:00 PM)
Minimum temperature yesterday: 68 °F (at 11:30 PM)
Average temperature yesterday: 84 °F

Past Weeks' High & Low Weather Summary

 TemperatureHumidityPressure
High106 °F (Jul 10, 2:00 PM)60% (Jul 13, 6:00 AM)29.92 "Hg (Jul 13, 6:00 AM)
Low57 °F (Jul 18, 6:00 AM)6% (Jul 22, 4:00 PM)29.56 "Hg (Jul 10, 2:30 AM)
Average82 °F23%29.73 "Hg
* Reported Jul 7 4:00 PM — Jul 22 4:30 PM, Shymkent, Weather by CustomWeather, © 2014

Note: Actual official high and low records may vary slightly from our data, if they occured in-between our weather recording intervals... More about our weather records

Advertising

Shymkent weather history for previous 24 hours

 ConditionsComfort  
Time TempWeatherWind HumidityBarometerVisibility
4:30 PM
Jul 22
93 °FPassing clouds.6 mph8%29.71 "HgN/A
4:00 PM93 °FPassing clouds.6 mph6%29.71 "HgN/A
3:30 PM93 °FPassing clouds.8 mph8%29.71 "HgN/A
3:00 PM93 °FPassing clouds.6 mph8%29.71 "HgN/A
2:30 PM93 °FPassing clouds.3 mph10%29.71 "HgN/A
2:00 PM93 °FPassing clouds.6 mph11%29.74 "HgN/A
1:30 PM91 °FPassing clouds.6 mph12%29.74 "HgN/A
1:00 PM91 °FPassing clouds.6 mph11%29.74 "HgN/A
12:30 PM90 °FPassing clouds.3 mph12%29.74 "HgN/A
12:00 PM88 °FPassing clouds.3 mph15%29.74 "HgN/A
11:30 AM86 °FPassing clouds.3 mph19%29.74 "HgN/A
11:00 AM82 °FPassing clouds.3 mph21%29.74 "HgN/A
10:30 AM81 °FSunny.1 mph26%29.74 "Hg10 mi
10:00 AM79 °FSunny.1 mph26%29.74 "Hg10 mi
9:30 AM75 °FSunny.1 mph29%29.74 "Hg10 mi
9:00 AM73 °FSunny.No wind25%29.74 "Hg10 mi
8:30 AM70 °FSunny.1 mph29%29.74 "Hg10 mi
8:00 AM66 °FSunny.3 mph37%29.77 "Hg10 mi
7:30 AM68 °FPassing clouds.3 mph35%29.74 "HgN/A
7:00 AM64 °FSunny.1 mph37%29.74 "Hg10 mi
6:30 AM63 °FSunny.No wind42%29.74 "Hg10 mi
6:00 AM66 °FSunny.3 mph37%29.74 "Hg10 mi
5:30 AM68 °FSunny.3 mph33%29.74 "Hg10 mi
5:00 AM64 °FClear.1 mph34%29.74 "Hg10 mi
4:30 AM63 °FClear.1 mph39%29.74 "Hg10 mi
4:00 AM63 °FClear.1 mph37%29.74 "Hg10 mi
3:00 AM63 °FClear.3 mph37%29.77 "Hg10 mi
2:30 AM63 °FClear.6 mph34%29.77 "Hg10 mi
2:00 AM63 °FClear.6 mph34%29.80 "Hg10 mi
1:30 AM63 °FClear.3 mph32%29.80 "Hg10 mi
1:00 AM66 °FClear.No wind24%29.80 "Hg10 mi
12:30 AM66 °FClear.1 mph28%29.80 "Hg4 mi
12:00 AM68 °FClear.1 mph26%29.80 "Hg3 mi
11:30 PM
Jul 21
68 °FClear.1 mph28%29.80 "Hg3 mi
11:00 PM70 °FClear.No wind25%29.80 "Hg10 mi
10:30 PM70 °FClear.1 mph27%29.80 "Hg10 mi
10:00 PM75 °FClear.No wind13%29.80 "Hg10 mi
9:30 PM75 °FClear.1 mph16%29.80 "Hg10 mi
9:00 PM79 °FClear.6 mph12%29.77 "Hg10 mi
8:30 PM81 °FClear.8 mph12%29.77 "Hg10 mi
8:00 PM82 °FClear.6 mph11%29.77 "Hg10 mi
7:30 PM86 °FSunny.13 mph11%29.77 "Hg10 mi
7:00 PM86 °FSunny.13 mph13%29.77 "Hg10 mi
6:30 PM88 °FSunny.13 mph13%29.74 "Hg10 mi
6:00 PM88 °FSunny.13 mph13%29.74 "Hg10 mi
5:30 PM90 °FSunny.6 mph14%29.74 "Hg10 mi
5:00 PM91 °FSunny.6 mph14%29.74 "Hg10 mi
Weather by CustomWeather, © 2014

See weather overviewHow to use our weather pages